SVA1037 OERK-OEJN

Flight info

Callsign SVA1037
Flight time 1h 22m
Altitude 40000
Route UMASU M309 VEMEM
Aircraft B77W/H-SDE1E2E3FGHIJ2J3J4J5M1RWXY/LB1D1

Departure

Time 2026-04-28 21:45
Airport King Khalid International Airport (OERK)

Arrival

Time 2026-04-28 23:08
Airport King Abdulaziz International Airport (OEJN)
Time Latitude Longitude Altitude Speed Heading
2026-04-28 21:14 24.95700 46.70632 2042 ft 0 kts 207°
2026-04-28 21:32 24.95709 46.70638 2035 ft 3 kts 208°
2026-04-28 21:32 24.95727 46.70648 2038 ft 3 kts 210°
2026-04-28 21:32 24.95745 46.70659 2045 ft 3 kts 210°
2026-04-28 21:32 24.95759 46.70668 2045 ft 1 kts 207°
2026-04-28 21:33 24.95761 46.70669 2045 ft 0 kts 207°
2026-04-28 21:37 24.95758 46.70666 2045 ft 2 kts 221°
2026-04-28 21:37 24.95764 46.70644 2045 ft 3 kts 319°
2026-04-28 21:37 24.95786 46.70654 2045 ft 5 kts 40°
2026-04-28 21:38 24.95791 46.70727 2042 ft 13 kts 131°
2026-04-28 21:38 24.95715 46.70787 2040 ft 13 kts 149°
2026-04-28 21:38 24.95636 46.70837 2043 ft 13 kts 151°
2026-04-28 21:38 24.95553 46.70885 2042 ft 13 kts 150°
2026-04-28 21:39 24.95474 46.70939 2044 ft 13 kts 148°
2026-04-28 21:39 24.95396 46.70993 2042 ft 13 kts 148°
2026-04-28 21:39 24.95312 46.71010 2043 ft 13 kts 207°
2026-04-28 21:39 24.95259 46.70929 2045 ft 13 kts 243°
2026-04-28 21:40 24.95214 46.70840 2044 ft 13 kts 238°
2026-04-28 21:40 24.95164 46.70754 2044 ft 13 kts 238°
2026-04-28 21:40 24.95116 46.70667 2045 ft 13 kts 240°
2026-04-28 21:40 24.95070 46.70578 2043 ft 13 kts 240°
2026-04-28 21:41 24.95024 46.70490 2043 ft 13 kts 240°
2026-04-28 21:41 24.94977 46.70402 2040 ft 13 kts 239°
2026-04-28 21:41 24.94907 46.70273 2045 ft 24 kts 239°
2026-04-28 21:41 24.94823 46.70118 2043 ft 24 kts 239°
2026-04-28 21:42 24.94742 46.69961 2041 ft 24 kts 241°
2026-04-28 21:42 24.94662 46.69804 2045 ft 24 kts 240°
2026-04-28 21:42 24.94581 46.69647 2043 ft 23 kts 240°
2026-04-28 21:42 24.94520 46.69537 2045 ft 11 kts 230°
2026-04-28 21:43 24.94454 46.69511 2044 ft 11 kts 165°
2026-04-28 21:43 24.94380 46.69550 2045 ft 15 kts 154°
2026-04-28 21:43 24.94255 46.69628 2044 ft 23 kts 147°
2026-04-28 21:43 24.94152 46.69695 2043 ft 11 kts 153°
2026-04-28 21:44 24.94080 46.69689 2042 ft 11 kts 215°
2026-04-28 21:44 24.94035 46.69618 2044 ft 12 kts 238°
2026-04-28 21:44 24.93994 46.69542 2045 ft 12 kts 239°
2026-04-28 21:44 24.94000 46.69459 2043 ft 12 kts 308°
2026-04-28 21:45 24.94238 46.69291 2042 ft 82 kts 331°
2026-04-28 21:45 24.94975 46.68829 2040 ft 159 kts 330°
2026-04-28 21:45 24.96095 46.68149 2255 ft 195 kts 331°
2026-04-28 21:45 24.97244 46.67418 3213 ft 188 kts 330°
2026-04-28 21:46 24.98328 46.66562 3871 ft 198 kts 320°
2026-04-28 21:46 24.99420 46.65484 4225 ft 226 kts 319°
2026-04-28 21:46 25.00539 46.64124 4466 ft 256 kts 300°
2026-04-28 21:46 25.01041 46.62209 5092 ft 269 kts 271°
2026-04-28 21:47 25.00690 46.60168 5885 ft 276 kts 245°
2026-04-28 21:47 24.99741 46.58329 6670 ft 279 kts 238°
2026-04-28 21:47 24.98731 46.56497 7630 ft 279 kts 238°
2026-04-28 21:47 24.97740 46.54681 8717 ft 276 kts 238°
2026-04-28 21:48 24.96759 46.52873 9768 ft 275 kts 239°
2026-04-28 21:48 24.95771 46.51050 10510 ft 286 kts 238°
2026-04-28 21:48 24.94671 46.49015 10387 ft 329 kts 239°
2026-04-28 21:48 24.93446 46.46743 10354 ft 357 kts 239°
2026-04-28 21:49 24.92266 46.44337 10290 ft 358 kts 247°
2026-04-28 21:49 24.91537 46.41689 10271 ft 363 kts 255°
2026-04-28 21:49 24.90928 46.38988 10254 ft 363 kts 255°
2026-04-28 21:49 24.90303 46.36297 10251 ft 363 kts 254°
2026-04-28 21:50 24.89658 46.33607 10262 ft 363 kts 253°
2026-04-28 21:50 24.89000 46.30922 10248 ft 363 kts 253°
2026-04-28 21:50 24.88333 46.28238 10246 ft 363 kts 253°
2026-04-28 21:50 24.87664 46.25556 10249 ft 363 kts 253°
2026-04-28 21:51 24.86992 46.22877 10264 ft 363 kts 253°
2026-04-28 21:51 24.86320 46.20198 10254 ft 363 kts 253°
2026-04-28 21:51 24.85405 46.17663 10318 ft 358 kts 237°
2026-04-28 21:51 24.83782 46.15563 11137 ft 363 kts 221°
2026-04-28 21:52 24.81780 46.13870 12251 ft 363 kts 216°
2026-04-28 21:52 24.79714 46.12253 13400 ft 366 kts 216°
2026-04-28 21:52 24.77632 46.10627 14445 ft 369 kts 216°
2026-04-28 21:52 24.75534 46.08971 15372 ft 374 kts 217°
2026-04-28 21:53 24.73413 46.07279 16293 ft 379 kts 217°
2026-04-28 21:53 24.71272 46.05560 17304 ft 382 kts 218°
2026-04-28 21:53 24.69119 46.03829 18324 ft 384 kts 218°
2026-04-28 21:53 24.67129 46.01886 19048 ft 386 kts 231°
2026-04-28 21:54 24.65675 45.99409 19765 ft 388 kts 240°
2026-04-28 21:54 24.64318 45.96821 20527 ft 393 kts 239°
2026-04-28 21:54 24.62925 45.94226 21398 ft 395 kts 239°
2026-04-28 21:54 24.61514 45.91625 22270 ft 397 kts 238°
2026-04-28 21:55 24.60108 45.89046 23069 ft 401 kts 238°
2026-04-28 21:55 24.58667 45.86411 23743 ft 405 kts 238°
2026-04-28 21:55 24.57205 45.83743 24332 ft 410 kts 239°
2026-04-28 21:55 24.55730 45.81051 24923 ft 413 kts 239°
2026-04-28 21:56 24.54243 45.78338 25508 ft 416 kts 239°
2026-04-28 21:56 24.52743 45.75603 26064 ft 420 kts 239°
2026-04-28 21:56 24.51228 45.72842 26582 ft 424 kts 239°
2026-04-28 21:56 24.49699 45.70055 27097 ft 428 kts 240°
2026-04-28 21:57 24.48158 45.67248 27601 ft 431 kts 240°
2026-04-28 21:57 24.46604 45.64422 28087 ft 434 kts 240°
2026-04-28 21:57 24.45037 45.61578 28545 ft 437 kts 240°
2026-04-28 21:57 24.43429 45.58742 28961 ft 440 kts 239°
2026-04-28 21:58 24.41779 45.55897 29343 ft 444 kts 239°
2026-04-28 21:58 24.40108 45.53038 29678 ft 447 kts 239°
2026-04-28 21:58 24.38427 45.50160 30023 ft 449 kts 239°
2026-04-28 21:58 24.36742 45.47270 30354 ft 449 kts 239°
2026-04-28 21:59 24.35065 45.44388 30822 ft 447 kts 240°
2026-04-28 21:59 24.33400 45.41522 31288 ft 444 kts 240°
2026-04-28 21:59 24.31742 45.38668 31724 ft 443 kts 240°
2026-04-28 22:00 24.28437 45.32977 32582 ft 441 kts 240°
2026-04-28 22:00 24.26791 45.30145 33032 ft 440 kts 240°
2026-04-28 22:00 24.25150 45.27324 33496 ft 438 kts 240°
2026-04-28 22:00 24.23513 45.24513 33933 ft 437 kts 240°
2026-04-28 22:01 24.21880 45.21708 34310 ft 436 kts 240°
2026-04-28 22:01 24.20253 45.18913 34646 ft 436 kts 240°
2026-04-28 22:01 24.18618 45.16107 34968 ft 437 kts 240°
2026-04-28 22:01 24.16985 45.13309 35271 ft 437 kts 240°
2026-04-28 22:02 24.15421 45.10455 35596 ft 436 kts 244°
2026-04-28 22:02 24.14039 45.07503 35971 ft 435 kts 246°
2026-04-28 22:02 24.12739 45.04521 36359 ft 433 kts 246°
2026-04-28 22:02 24.11457 45.01538 36730 ft 433 kts 246°
2026-04-28 22:03 24.10167 44.98562 37063 ft 433 kts 246°
2026-04-28 22:03 24.08858 44.95591 37397 ft 433 kts 245°
2026-04-28 22:03 24.07540 44.92636 37785 ft 431 kts 245°
2026-04-28 22:03 24.06218 44.89695 38163 ft 430 kts 245°
2026-04-28 22:04 24.04897 44.86768 38494 ft 430 kts 245°
2026-04-28 22:04 24.03573 44.83839 38773 ft 429 kts 245°
2026-04-28 22:04 24.02249 44.80911 39027 ft 429 kts 245°
2026-04-28 22:04 24.00925 44.77986 39300 ft 429 kts 245°
2026-04-28 22:05 23.99622 44.75105 39564 ft 428 kts 245°
2026-04-28 22:05 23.98301 44.72185 39729 ft 429 kts 245°
2026-04-28 22:05 23.96975 44.69255 39875 ft 432 kts 245°
2026-04-28 22:06 23.94291 44.63333 39950 ft 436 kts 244°
2026-04-28 22:06 23.91764 44.57345 39952 ft 430 kts 249°
2026-04-28 22:07 23.89644 44.51277 39953 ft 426 kts 249°
2026-04-28 22:07 23.87536 44.45238 39956 ft 425 kts 249°
2026-04-28 22:08 23.85420 44.39210 39963 ft 425 kts 249°
2026-04-28 22:08 23.83293 44.33173 39956 ft 427 kts 249°
2026-04-28 22:09 23.81157 44.27124 39951 ft 428 kts 249°
2026-04-28 22:09 23.79010 44.21051 39958 ft 429 kts 249°
2026-04-28 22:10 23.76855 44.14965 39944 ft 430 kts 249°
2026-04-28 22:10 23.74696 44.08876 39926 ft 430 kts 249°
2026-04-28 22:11 23.72547 44.02826 39950 ft 430 kts 249°
2026-04-28 22:11 23.70381 43.96734 39947 ft 431 kts 249°
2026-04-28 22:12 23.68212 43.90643 39943 ft 431 kts 249°
2026-04-28 22:12 23.66052 43.84586 39934 ft 424 kts 249°
2026-04-28 22:13 23.63929 43.78639 39939 ft 418 kts 249°
2026-04-28 22:13 23.61816 43.72731 39951 ft 418 kts 249°
2026-04-28 22:14 23.59703 43.66830 39960 ft 418 kts 249°
2026-04-28 22:14 23.57941 43.61916 39975 ft 419 kts 249°
2026-04-28 22:15 23.55814 43.55991 39970 ft 420 kts 249°
2026-04-28 22:15 23.53678 43.50048 39979 ft 422 kts 249°
2026-04-28 22:16 23.51536 43.44098 39967 ft 423 kts 249°
2026-04-28 22:16 23.49382 43.38122 39985 ft 425 kts 249°
2026-04-28 22:17 23.47218 43.32126 39989 ft 426 kts 249°
2026-04-28 22:17 23.45047 43.26118 39997 ft 427 kts 249°
2026-04-28 22:18 23.42872 43.20101 39995 ft 427 kts 249°
2026-04-28 22:18 23.40690 43.14084 39997 ft 427 kts 249°
2026-04-28 22:19 23.38517 43.08109 40013 ft 427 kts 248°
2026-04-28 22:19 23.36312 43.02059 40020 ft 427 kts 248°
2026-04-28 22:20 23.34141 42.96100 40013 ft 427 kts 248°
2026-04-28 22:20 23.31951 42.90100 40007 ft 426 kts 248°
2026-04-28 22:21 23.29762 42.84106 40014 ft 426 kts 248°
2026-04-28 22:21 23.27572 42.78118 39999 ft 426 kts 248°
2026-04-28 22:22 23.25379 42.72131 40009 ft 426 kts 248°
2026-04-28 22:22 23.23183 42.66144 40012 ft 427 kts 248°
2026-04-28 22:23 23.20979 42.60143 40028 ft 428 kts 248°
2026-04-28 22:23 23.18770 42.54134 40023 ft 428 kts 248°
2026-04-28 22:24 23.16555 42.48118 40022 ft 429 kts 248°
2026-04-28 22:24 23.14338 42.42099 40008 ft 429 kts 248°
2026-04-28 22:25 23.12115 42.36080 40025 ft 429 kts 248°
2026-04-28 22:25 23.09940 42.30037 40022 ft 430 kts 249°
2026-04-28 22:26 23.07790 42.23986 40020 ft 430 kts 249°
2026-04-28 22:26 23.05634 42.17935 40026 ft 429 kts 249°
2026-04-28 22:27 23.03473 42.11895 40009 ft 429 kts 249°
2026-04-28 22:27 23.01326 42.05906 40007 ft 428 kts 249°
2026-04-28 22:28 22.99167 41.99888 40012 ft 428 kts 249°
2026-04-28 22:28 22.97010 41.93884 40022 ft 427 kts 249°
2026-04-28 22:29 22.94848 41.87877 40018 ft 427 kts 249°
2026-04-28 22:29 22.92680 41.81875 40022 ft 427 kts 249°
2026-04-28 22:30 22.90511 41.75874 40011 ft 427 kts 249°
2026-04-28 22:30 22.88341 41.69871 40025 ft 427 kts 249°
2026-04-28 22:31 22.86171 41.63877 40034 ft 428 kts 249°
2026-04-28 22:31 22.83995 41.57872 40024 ft 428 kts 249°
2026-04-28 22:32 22.81815 41.51864 40037 ft 428 kts 248°
2026-04-28 22:32 22.79634 41.45860 40031 ft 428 kts 248°
2026-04-28 22:33 22.77453 41.39863 40011 ft 427 kts 249°
2026-04-28 22:33 22.75271 41.33870 40026 ft 427 kts 248°
2026-04-28 22:34 22.73087 41.27889 40029 ft 427 kts 248°
2026-04-28 22:34 22.70894 41.21898 40035 ft 428 kts 248°
2026-04-28 22:35 22.68702 41.15908 40035 ft 428 kts 248°
2026-04-28 22:35 22.66508 41.09924 40034 ft 428 kts 248°
2026-04-28 22:36 22.64322 41.03973 40024 ft 428 kts 248°
2026-04-28 22:36 22.62119 40.97979 40028 ft 429 kts 248°
2026-04-28 22:37 22.59915 40.91982 40033 ft 429 kts 248°
2026-04-28 22:37 22.57708 40.85987 40030 ft 429 kts 248°
2026-04-28 22:38 22.55489 40.79984 40034 ft 430 kts 248°
2026-04-28 22:38 22.53279 40.74019 40031 ft 427 kts 248°
2026-04-28 22:39 22.51061 40.68033 40033 ft 431 kts 248°
2026-04-28 22:39 22.48822 40.61995 40027 ft 429 kts 248°
2026-04-28 22:39 22.47731 40.59054 39483 ft 414 kts 248°
2026-04-28 22:40 22.46661 40.56175 38892 ft 413 kts 248°
2026-04-28 22:40 22.45589 40.53289 38222 ft 414 kts 248°
2026-04-28 22:40 22.44514 40.50399 37576 ft 414 kts 248°
2026-04-28 22:40 22.43451 40.47541 37027 ft 402 kts 248°
2026-04-28 22:41 22.42425 40.44788 36143 ft 390 kts 249°
2026-04-28 22:41 22.41416 40.42080 35010 ft 386 kts 249°
2026-04-28 22:41 22.40417 40.39402 33942 ft 382 kts 249°
2026-04-28 22:41 22.39432 40.36760 32832 ft 376 kts 249°
2026-04-28 22:42 22.38465 40.34171 31817 ft 369 kts 250°
2026-04-28 22:42 22.37513 40.31621 30809 ft 363 kts 250°
2026-04-28 22:42 22.36574 40.29109 29745 ft 358 kts 250°
2026-04-28 22:42 22.35662 40.26665 28655 ft 352 kts 250°
2026-04-28 22:43 22.34743 40.24208 27619 ft 345 kts 250°
2026-04-28 22:43 22.33865 40.21857 26642 ft 339 kts 249°
2026-04-28 22:43 22.32978 40.19487 25684 ft 333 kts 249°
2026-04-28 22:43 22.32117 40.17187 24767 ft 328 kts 248°
2026-04-28 22:44 22.31281 40.14953 23903 ft 323 kts 248°
2026-04-28 22:44 22.30446 40.12723 22924 ft 318 kts 247°
2026-04-28 22:44 22.29620 40.10520 21822 ft 315 kts 247°
2026-04-28 22:44 22.28798 40.08328 20751 ft 315 kts 247°
2026-04-28 22:45 22.27976 40.06140 19717 ft 314 kts 247°
2026-04-28 22:45 22.27155 40.03954 18720 ft 314 kts 247°
2026-04-28 22:45 22.26300 40.01788 17687 ft 312 kts 242°
2026-04-28 22:45 22.25178 39.99800 16728 ft 308 kts 236°
2026-04-28 22:46 22.23967 39.97922 15845 ft 304 kts 235°
2026-04-28 22:46 22.22761 39.96049 15401 ft 305 kts 233°
2026-04-28 22:46 22.21289 39.94406 15210 ft 307 kts 221°
2026-04-28 22:46 22.19629 39.92911 15163 ft 313 kts 220°
2026-04-28 22:47 22.17971 39.91424 15136 ft 305 kts 220°
2026-04-28 22:47 22.16376 39.89990 15114 ft 291 kts 221°
2026-04-28 22:47 22.14857 39.88619 15106 ft 278 kts 221°
2026-04-28 22:47 22.13397 39.87296 15135 ft 274 kts 221°
2026-04-28 22:48 22.11932 39.85963 15139 ft 277 kts 221°
2026-04-28 22:48 22.10460 39.84621 15116 ft 276 kts 221°
2026-04-28 22:48 22.09000 39.83290 15116 ft 275 kts 221°
2026-04-28 22:48 22.07546 39.81963 15016 ft 272 kts 221°
2026-04-28 22:49 22.06132 39.80673 14527 ft 262 kts 221°
2026-04-28 22:49 22.04740 39.79400 13775 ft 264 kts 221°
2026-04-28 22:49 22.03334 39.78115 12931 ft 266 kts 221°
2026-04-28 22:49 22.01963 39.76862 12225 ft 263 kts 221°
2026-04-28 22:50 22.00575 39.75595 11531 ft 259 kts 221°
2026-04-28 22:50 21.99207 39.74346 10871 ft 256 kts 221°
2026-04-28 22:50 21.97855 39.73113 10223 ft 253 kts 220°
2026-04-28 22:50 21.96522 39.71896 9577 ft 250 kts 221°
2026-04-28 22:51 21.95199 39.70688 8858 ft 248 kts 221°
2026-04-28 22:51 21.93887 39.69490 8189 ft 246 kts 220°
2026-04-28 22:51 21.92580 39.68299 7489 ft 246 kts 220°
2026-04-28 22:51 21.91280 39.67113 6835 ft 244 kts 220°
2026-04-28 22:52 21.89989 39.65936 6191 ft 242 kts 221°
2026-04-28 22:52 21.88704 39.64765 5507 ft 242 kts 221°
2026-04-28 22:52 21.87416 39.63593 4798 ft 243 kts 222°
2026-04-28 22:52 21.86123 39.62415 4105 ft 243 kts 223°
2026-04-28 22:53 21.84822 39.61228 3524 ft 249 kts 223°
2026-04-28 22:53 21.83501 39.60026 3345 ft 250 kts 223°
2026-04-28 22:53 21.82153 39.58796 3162 ft 256 kts 223°
2026-04-28 22:53 21.80797 39.57561 3075 ft 252 kts 223°
2026-04-28 22:54 21.79472 39.56358 3066 ft 247 kts 224°
2026-04-28 22:54 21.78165 39.55170 3066 ft 246 kts 224°
2026-04-28 22:54 21.76849 39.53971 3064 ft 250 kts 224°
2026-04-28 22:54 21.75518 39.52759 3072 ft 251 kts 224°
2026-04-28 22:55 21.74186 39.51548 3061 ft 251 kts 224°
2026-04-28 22:55 21.72854 39.50338 3061 ft 250 kts 224°
2026-04-28 22:55 21.71525 39.49131 3069 ft 249 kts 224°
2026-04-28 22:55 21.70199 39.47927 3047 ft 250 kts 224°
2026-04-28 22:56 21.68875 39.46724 3041 ft 249 kts 224°
2026-04-28 22:56 21.67553 39.45523 3040 ft 249 kts 224°
2026-04-28 22:56 21.66232 39.44325 3054 ft 249 kts 223°
2026-04-28 22:56 21.64906 39.43119 3038 ft 250 kts 224°
2026-04-28 22:57 21.63596 39.41930 3054 ft 249 kts 224°
2026-04-28 22:57 21.62269 39.40727 3053 ft 250 kts 223°
2026-04-28 22:57 21.60936 39.39517 3039 ft 251 kts 224°
2026-04-28 22:57 21.59584 39.38290 3040 ft 251 kts 223°
2026-04-28 22:58 21.58246 39.37078 3021 ft 252 kts 223°
2026-04-28 22:58 21.56907 39.35865 3018 ft 252 kts 223°
2026-04-28 22:58 21.55584 39.34668 3012 ft 252 kts 224°
2026-04-28 22:58 21.54175 39.33575 3010 ft 251 kts 206°
2026-04-28 22:59 21.52446 39.33351 3022 ft 257 kts 170°
2026-04-28 22:59 21.50783 39.33936 3012 ft 245 kts 159°
2026-04-28 22:59 21.49217 39.34561 2993 ft 229 kts 160°
2026-04-28 22:59 21.47775 39.35132 3051 ft 223 kts 160°
2026-04-28 23:00 21.46299 39.35616 3015 ft 219 kts 177°
2026-04-28 23:00 21.44855 39.35309 3034 ft 211 kts 214°
2026-04-28 23:00 21.43889 39.34218 3052 ft 197 kts 247°
2026-04-28 23:00 21.43342 39.32867 3038 ft 198 kts 253°
2026-04-28 23:01 21.42831 39.31489 3027 ft 200 kts 253°
2026-04-28 23:01 21.42532 39.30077 3009 ft 190 kts 279°
2026-04-28 23:01 21.43023 39.28814 3020 ft 184 kts 308°
2026-04-28 23:01 21.43851 39.27742 3029 ft 188 kts 313°
2026-04-28 23:02 21.44868 39.26895 3020 ft 185 kts 332°
2026-04-28 23:02 21.46034 39.26294 3019 ft 187 kts 335°
2026-04-28 23:02 21.46847 39.25920 3019 ft 189 kts 336°
2026-04-28 23:02 21.48074 39.25401 3015 ft 190 kts 338°
2026-04-28 23:03 21.49316 39.24901 3022 ft 191 kts 339°
2026-04-28 23:03 21.50562 39.24407 3023 ft 191 kts 338°
2026-04-28 23:03 21.51783 39.23926 3003 ft 184 kts 338°
2026-04-28 23:03 21.52966 39.23459 2802 ft 182 kts 338°
2026-04-28 23:04 21.54135 39.22996 2595 ft 177 kts 340°
2026-04-28 23:04 21.56361 39.22117 2141 ft 159 kts 340°
2026-04-28 23:04 21.57344 39.21729 1933 ft 144 kts 340°
2026-04-28 23:05 21.58262 39.21366 1750 ft 139 kts 341°
2026-04-28 23:05 21.59172 39.21006 1587 ft 140 kts 341°
2026-04-28 23:05 21.60085 39.20646 1396 ft 140 kts 341°
2026-04-28 23:05 21.60989 39.20290 1220 ft 137 kts 340°
2026-04-28 23:06 21.61883 39.19935 1036 ft 138 kts 341°
2026-04-28 23:06 21.62798 39.19572 887 ft 143 kts 341°
2026-04-28 23:06 21.63734 39.19202 657 ft 142 kts 341°
2026-04-28 23:06 21.64649 39.18850 495 ft 136 kts 341°
2026-04-28 23:07 21.65539 39.18480 353 ft 141 kts 341°
2026-04-28 23:07 21.66490 39.18113 159 ft 148 kts 341°
2026-04-28 23:07 21.67424 39.17746 40 ft 133 kts 341°
2026-04-28 23:07 21.68190 39.17443 33 ft 97 kts 340°
2026-04-28 23:08 21.68658 39.17257 32 ft 44 kts 340°
2026-04-28 23:08 21.68858 39.17099 34 ft 28 kts 309°
2026-04-28 23:08 21.68932 39.17004 35 ft 14 kts 302°
2026-04-28 23:08 21.68908 39.16934 35 ft 12 kts 178°
2026-04-28 23:09 21.68830 39.16954 36 ft 12 kts 162°
2026-04-28 23:09 21.68746 39.16983 35 ft 14 kts 162°
2026-04-28 23:09 21.68647 39.17019 33 ft 17 kts 159°
2026-04-28 23:09 21.68531 39.17053 32 ft 18 kts 196°
2026-04-28 23:10 21.68413 39.17023 34 ft 18 kts 172°
2026-04-28 23:10 21.68293 39.17061 34 ft 18 kts 160°
2026-04-28 23:10 21.68172 39.17112 34 ft 19 kts 159°
2026-04-28 23:10 21.68050 39.17159 35 ft 19 kts 160°
2026-04-28 23:11 21.67924 39.17208 35 ft 19 kts 160°
2026-04-28 23:11 21.67798 39.17256 35 ft 19 kts 160°
2026-04-28 23:11 21.67674 39.17308 35 ft 19 kts 158°
2026-04-28 23:11 21.67550 39.17363 35 ft 19 kts 158°
2026-04-28 23:12 21.67425 39.17413 35 ft 19 kts 163°
2026-04-28 23:12 21.67297 39.17453 35 ft 17 kts 161°
2026-04-28 23:12 21.67204 39.17436 35 ft 14 kts 221°
2026-04-28 23:12 21.67137 39.17354 35 ft 13 kts 224°
2026-04-28 23:13 21.67124 39.17304 35 ft 8 kts 278°
2026-04-28 23:13 21.67145 39.17258 35 ft 0 kts 305°
2026-04-28 23:13 21.67148 39.17253 35 ft 1 kts 305°
2026-04-28 23:13 21.67150 39.17251 35 ft 0 kts 305°